Погода в Криволучье-Ивановке

Россия / Самарская область     52°44′28″N   49°33′04″E
темп.,
°C
ветер,
м/с
пор.,
м/с
влажн.,
%
обл.,
%
осадки,
мм/ч
давл.,
гПа
погр.,
м
16 мая, вс
вс1601:00+20ююв512462 0.0 1018171
04:00+18ю511502 0.0 1019169
07:00+20ю49545 0.0 1019185
10:00+27ю58355 0.0 1019499
13:00+30ююз711265 0.0 10182961
16:00+31ююз682356 0.0 10183609
19:00+27ююв474182 0.0 1017121
22:00+22ююв484260 0.0 101796
17 мая, пн
пн1701:00+20ююв5124797 0.0 1018209
04:00+20ю51346100 0.0 1018219
07:00+20ю275694 0.0 1019210
10:00+27ю453857 0.0 1019539
13:00+31ю452514 0.0 10192089
16:00+31ю452210 0.0 10183432
19:00+27ююз343749 0.0 101866
22:00+22ю333715 0.0 101824
18 мая, вт
вт1801:00+20вюв224116 0.0 101813
04:00+19юв334463 0.0 101830
07:00+21вюв374884 0.0 1018147
10:00+28юв463028 0.0 1017628
13:00+31ююв56215 0.0 10172859
16:00+31ю442055 0.0 10163743
19:00+28ююз113467 0.0 101611
22:00+22в453931 0.0 101675
19 мая, ср
ср1901:00+20в473956 0.0 101690
04:00+18вюв48495 0.0 1016108
07:00+20в49614 0.0 1016234
10:00+27вюв574370 0.0 1015732
13:00+30юв68305 0.0 10152865
16:00+31ююв56222 0.0 10143282
19:00+28юв34350 0.0 101349
22:00+23юв916510 0.0 1015508
20 мая, чт
чт2001:00+21юв816527 0.0 1016407
04:00+20юв8185999 0.0 1015479
07:00+20ююв9186229 0.0 1015638
10:00+25ююв10155067 0.0 10151027
13:00+28ю101343100 0.0 10161909
16:00+28ю71243100 0.0 10162639
19:00+24з355831 0.3 1016195
22:00+21вюв1169100 0.3 101813